GOBAK EGLF-EGKK

Flight info

Callsign GOBAK
Flight time 0h 20m
Altitude 5000
Route GWC DCT HOLLY DCT WILLO
Aircraft PA24/L-SDGRY/S

Departure

Time 2026-05-04 14:11
Airport Farnborough Airport (EGLF)

Arrival

Time 2026-05-04 14:31
Airport London Gatwick Airport (EGKK)
Time Latitude Longitude Altitude Speed Heading
2026-05-04 14:01 51.27795 -0.77997 217 ft 0 kts 310°
2026-05-04 14:05 51.27800 -0.78006 217 ft 4 kts 312°
2026-05-04 14:05 51.27792 -0.78059 217 ft 6 kts 214°
2026-05-04 14:06 51.27765 -0.78092 217 ft 4 kts 215°
2026-05-04 14:06 51.27740 -0.78120 217 ft 5 kts 214°
2026-05-04 14:06 51.27706 -0.78156 217 ft 5 kts 218°
2026-05-04 14:06 51.27705 -0.78157 217 ft 0 kts 219°
2026-05-04 14:08 51.27705 -0.78158 217 ft 1 kts 219°
2026-05-04 14:08 51.27654 -0.78236 220 ft 13 kts 236°
2026-05-04 14:08 51.27593 -0.78338 218 ft 13 kts 221°
2026-05-04 14:08 51.27529 -0.78425 217 ft 11 kts 221°
2026-05-04 14:09 51.27447 -0.78541 218 ft 6 kts 220°
2026-05-04 14:09 51.27416 -0.78581 218 ft 7 kts 216°
2026-05-04 14:10 51.27330 -0.78703 221 ft 6 kts 222°
2026-05-04 14:10 51.27278 -0.78705 221 ft 9 kts 148°
2026-05-04 14:10 51.27250 -0.78638 221 ft 6 kts 75°
2026-05-04 14:10 51.27306 -0.78464 218 ft 48 kts 61°
2026-05-04 14:11 51.27563 -0.77739 330 ft 90 kts 55°
2026-05-04 14:11 51.28324 -0.75934 1174 ft 105 kts 60°
2026-05-04 14:11 51.28423 -0.74741 1549 ft 118 kts 101°
2026-05-04 14:12 51.27969 -0.73615 1915 ft 124 kts 135°
2026-05-04 14:12 51.27240 -0.72800 2233 ft 131 kts 147°
2026-05-04 14:12 51.25707 -0.71394 2788 ft 125 kts 149°
2026-05-04 14:13 51.24924 -0.70697 2850 ft 132 kts 150°
2026-05-04 14:13 51.24108 -0.69995 2955 ft 133 kts 151°
2026-05-04 14:13 51.23182 -0.69736 2961 ft 141 kts 185°
2026-05-04 14:13 51.22281 -0.70330 3013 ft 144 kts 213°
2026-05-04 14:14 51.21526 -0.71354 3128 ft 139 kts 224°
2026-05-04 14:14 51.20188 -0.73485 3298 ft 135 kts 225°
2026-05-04 14:14 51.19844 -0.74816 3123 ft 145 kts 276°
2026-05-04 14:15 51.21160 -0.76669 3247 ft 135 kts 354°
2026-05-04 14:15 51.22627 -0.75074 3255 ft 139 kts 65°
2026-05-04 14:16 51.22829 -0.72094 3114 ft 139 kts 91°
2026-05-04 14:16 51.22779 -0.70586 3017 ft 130 kts 94°
2026-05-04 14:17 51.22562 -0.67864 2965 ft 119 kts 98°
2026-05-04 14:17 51.22425 -0.66571 2990 ft 118 kts 98°
2026-05-04 14:17 51.22178 -0.64040 2957 ft 111 kts 97°
2026-05-04 14:18 51.22085 -0.62837 2895 ft 109 kts 95°
2026-05-04 14:18 51.21957 -0.60433 2809 ft 107 kts 94°
2026-05-04 14:19 51.21856 -0.58014 2506 ft 115 kts 92°
2026-05-04 14:19 51.21821 -0.56739 2272 ft 115 kts 91°
2026-05-04 14:19 51.21776 -0.55468 2017 ft 115 kts 92°
2026-05-04 14:19 51.21709 -0.54210 1777 ft 113 kts 94°
2026-05-04 14:20 51.21640 -0.52964 1538 ft 112 kts 94°
2026-05-04 14:20 51.21573 -0.51784 1499 ft 104 kts 94°
2026-05-04 14:20 51.21529 -0.50619 1479 ft 110 kts 90°
2026-05-04 14:21 51.21567 -0.48172 1483 ft 110 kts 82°
2026-05-04 14:21 51.21717 -0.46976 1497 ft 108 kts 76°
2026-05-04 14:21 51.21892 -0.45788 1487 ft 111 kts 77°
2026-05-04 14:21 51.22025 -0.44571 1476 ft 112 kts 81°
2026-05-04 14:22 51.22129 -0.43327 1487 ft 113 kts 83°
2026-05-04 14:22 51.22209 -0.42080 1537 ft 112 kts 83°
2026-05-04 14:22 51.22272 -0.40829 1568 ft 114 kts 85°
2026-05-04 14:22 51.22310 -0.39554 1546 ft 115 kts 86°
2026-05-04 14:23 51.22353 -0.36970 1562 ft 117 kts 88°
2026-05-04 14:23 51.22372 -0.35705 1574 ft 114 kts 88°
2026-05-04 14:23 51.22361 -0.34456 1595 ft 110 kts 90°
2026-05-04 14:24 51.22486 -0.33294 1582 ft 108 kts 59°
2026-05-04 14:24 51.23133 -0.32743 1502 ft 113 kts 11°
2026-05-04 14:24 51.23744 -0.33394 1476 ft 114 kts 288°
2026-05-04 14:24 51.23516 -0.34511 1549 ft 109 kts 226°
2026-05-04 14:25 51.22848 -0.34988 1613 ft 107 kts 188°
2026-05-04 14:25 51.21366 -0.34671 1683 ft 109 kts 165°
2026-05-04 14:25 51.20615 -0.34389 1700 ft 112 kts 165°
2026-05-04 14:26 51.19850 -0.34086 1696 ft 114 kts 164°
2026-05-04 14:26 51.19072 -0.33740 1570 ft 114 kts 162°
2026-05-04 14:26 51.18337 -0.33383 1535 ft 107 kts 160°
2026-05-04 14:26 51.17631 -0.33038 1505 ft 104 kts 162°
2026-05-04 14:27 51.16921 -0.32697 1457 ft 109 kts 161°
2026-05-04 14:27 51.16181 -0.32354 1437 ft 111 kts 162°
2026-05-04 14:27 51.15444 -0.32022 1444 ft 110 kts 163°
2026-05-04 14:27 51.14702 -0.31755 1480 ft 107 kts 168°
2026-05-04 14:28 51.14024 -0.31413 1405 ft 97 kts 139°
2026-05-04 14:28 51.13873 -0.30501 1420 ft 86 kts 89°
2026-05-04 14:28 51.13806 -0.29540 1440 ft 89 kts 95°
2026-05-04 14:28 51.13752 -0.28526 1413 ft 95 kts 92°
2026-05-04 14:29 51.13821 -0.26391 1237 ft 99 kts 82°
2026-05-04 14:29 51.14056 -0.24394 941 ft 85 kts 76°
2026-05-04 14:30 51.14191 -0.23496 774 ft 82 kts 75°
2026-05-04 14:30 51.14316 -0.22628 611 ft 79 kts 76°
2026-05-04 14:30 51.14543 -0.20992 260 ft 73 kts 73°
2026-05-04 14:31 51.14648 -0.20245 211 ft 61 kts 77°
2026-05-04 14:31 51.14785 -0.19239 210 ft 36 kts 78°
2026-05-04 14:32 51.14892 -0.18466 205 ft 44 kts 78°
2026-05-04 14:32 51.14948 -0.18052 207 ft 34 kts 78°
2026-05-04 14:32 51.14980 -0.17811 210 ft 13 kts 78°
2026-05-04 14:32 51.14956 -0.17715 209 ft 9 kts 151°
2026-05-04 14:33 51.14895 -0.17690 207 ft 9 kts 165°
2026-05-04 14:33 51.14866 -0.17680 207 ft 0 kts 168°
2026-05-04 14:34 51.14847 -0.17671 210 ft 9 kts 157°
2026-05-04 14:34 51.14805 -0.17595 210 ft 8 kts 108°
2026-05-04 14:34 51.14802 -0.17517 207 ft 6 kts 80°
2026-05-04 14:34 51.14804 -0.17460 207 ft 7 kts 115°
2026-05-04 14:35 51.14757 -0.17399 213 ft 9 kts 109°
2026-05-04 14:35 51.14755 -0.17361 207 ft 0 kts 83°